Project,Study,Ord_Occ,Event_Num,Cast_ID,Date_Time_UTC,Date_Time_PST,Lat_Dec,Lon_Dec,Sta_ID,Line,Sta,Depth,Pressure,PrQ,Temp1,Temp1Q,Temp2,Temp2Q,TempAve,Salt1,Salt1Q,Salt1_Corr,Salt2,Salt2Q,Salt2_Corr,SaltAve_Corr,Ox1,Ox1Q,Ox1_CruiseCorr,Ox1_StaCorr,Ox2,Ox2Q,Ox2_CruiseCorr,Ox2_StaCorr,OxAve_StaCorr,Ox1uM,Ox1uM_CruiseCorr,Ox1uM_StaCorr,Ox2uM,Ox2uM_CruiseCorr,Ox2uM_StaCorr,OxAveuM_StaCorr,FluorV,FluorQ,EstChl_CruiseCorr,EstChl_StaCorr,ISUSV,ISUSQ,EstNO3_CruiseCorr,EstNO3_StaCorr,SigThetaTS1,SigThetaTS1Q,SigThetaTS2,SigThetaTS2Q,BAT,XMiss,TransQ,pH,pHQ,SPAR,SPARQ,PAR,PARQ,PoT1,PoT2,DynHt,SVA,OxSat1,OxSat2,BTL_Depth,BTL_Temp,SaltB,OxB,OxBuM,Chl-a,Phaeo,NO3,NO2,NH4,PO4,SIL
CalCOFI,2101RL,066,,2101_066d,01-Feb-2021 10:28:17,01-Feb-2021 02:28:17,33.39093,-124.31988,076.7 100.0,076.7,100.0,2.000,2.014,,13.8947,,13.8949,,13.8948,33.0166,,33.0224,33.0151,,33.0171,33.0198,5.6549,,5.9183,5.9763,5.5277,,5.8690,5.9227,5.9495,246.465,258.2598,226.2522,240.922,274.5253,224.4846,225.3684,0.1097,,0.6507,0.5020, ,, , ,24.6765,,24.6753,,0.8004,81.8651,,,,3.4285E+00,,1.0000E-12,,13.8944,13.8946,-0.0016,325.633,95.973,93.814,,,,,,,,,,,,
CalCOFI,2101RL,066,,2101_066d,01-Feb-2021 10:28:27,01-Feb-2021 02:28:27,33.39096,-124.31982,076.7 100.0,076.7,100.0,3.000,3.021,,13.8950,,13.8953,,13.8952,33.0167,,33.0225,33.0151,,33.0171,33.0198,5.6512,,5.9144,5.9724,5.5477,,5.8902,5.9442,5.9583,246.305,258.0923,226.1163,241.796,274.3474,225.2431,225.6797,0.1157,,0.6999,0.4879, ,, , ,24.6765,,24.6752,,0.8018,81.8376,,,,3.0091E+00,,1.0000E-12,,13.8946,13.8949,0.0041,325.654,95.911,94.155,3,,33.0200,5.930,258.83,0.447,0.099,,,,,
CalCOFI,2101RL,066,,2101_066d,01-Feb-2021 10:28:33,01-Feb-2021 02:28:33,33.39096,-124.31978,076.7 100.0,076.7,100.0,4.000,4.029,,13.8939,,13.8943,,13.8941,33.0169,,33.0227,33.0152,,33.0172,33.0200,5.6508,,5.9140,5.9720,5.5795,,5.9240,5.9782,5.9751,246.286,258.0724,226.1001,243.181,274.3263,226.4451,226.2726,0.1107,,0.6589,0.5001, ,, , ,24.6769,,24.6755,,0.8020,81.8328,,,,3.5843E+00,,1.0000E-12,,13.8933,13.8938,0.0096,325.646,95.902,94.692,,,,,,,,,,,,
CalCOFI,2101RL,066,,2101_066d,01-Feb-2021 10:28:34,01-Feb-2021 02:28:34,33.39098,-124.31976,076.7 100.0,076.7,100.0,5.000,5.036,,13.8947,,13.8951,,13.8949,33.0167,,33.0225,33.0152,,33.0172,33.0199,5.6576,,5.9211,5.9791,5.5879,,5.9329,5.9872,5.9832,246.585,258.3854,226.3542,243.547,274.6588,226.7627,226.5585,0.1112,,0.6630,0.4991, ,, , ,24.6767,,24.6754,,0.8025,81.8216,,,,3.3992E+00,,1.0000E-12,,13.8940,13.8944,0.0129,325.697,96.020,94.836,,,,,,,,,,,,
CalCOFI,2101RL,066,,2101_066d,01-Feb-2021 10:28:35,01-Feb-2021 02:28:35,33.39098,-124.31976,076.7 100.0,076.7,100.0,6.000,6.043,,13.8951,,13.8953,,13.8952,33.0167,,33.0225,33.0151,,33.0171,33.0198,5.6626,,5.9264,5.9843,5.5896,,5.9347,5.9890,5.9867,246.799,258.6094,226.5360,243.619,274.8968,226.8252,226.6806,0.1123,,0.6720,0.4968, ,, , ,24.6766,,24.6753,,0.8015,81.8423,,,,2.8577E+00,,1.0000E-12,,13.8943,13.8945,0.0161,325.731,96.104,94.865,,,,,,,,,,,,
CalCOFI,2101RL,066,,2101_066d,01-Feb-2021 10:28:38,01-Feb-2021 02:28:38,33.39096,-124.31972,076.7 100.0,076.7,100.0,7.000,7.050,,13.8963,,13.8964,,13.8964,33.0166,,33.0224,33.0151,,33.0171,33.0198,5.6316,,5.8939,5.9518,5.5956,,5.9411,5.9955,5.9737,245.452,257.1994,225.3915,243.882,273.3989,227.0534,226.2225,0.1087,,0.6425,0.5036, ,, , ,24.6763,,24.6752,,0.8010,81.8533,,,,2.3807E+00,,1.0000E-12,,13.8953,13.8954,0.0194,325.786,95.582,94.969,,,,,,,,,,,,
CalCOFI,2101RL,066,,2101_066d,01-Feb-2021 10:28:39,01-Feb-2021 02:28:39,33.39096,-124.31972,076.7 100.0,076.7,100.0,8.000,8.057,,13.8971,,13.8975,,13.8973,33.0166,,33.0224,33.0150,,33.0170,33.0197,5.6392,,5.9019,5.9598,5.5915,,5.9367,5.9911,5.9755,245.784,257.5469,225.6736,243.704,273.7681,226.8989,226.2863,0.1129,,0.6769,0.4954, ,, , ,24.6761,,24.6748,,0.8017,81.8383,,,,2.3741E+00,,1.0000E-12,,13.8960,13.8964,0.0227,325.833,95.712,94.902,,,,,,,,,,,,
CalCOFI,2101RL,066,,2101_066d,01-Feb-2021 10:28:41,01-Feb-2021 02:28:41,33.39096,-124.31972,076.7 100.0,076.7,100.0,9.000,9.064,,13.8973,,13.8977,,13.8975,33.0167,,33.0225,33.0151,,33.0171,33.0198,5.6352,,5.8977,5.9556,5.5808,,5.9254,5.9796,5.9676,245.608,257.3627,225.5240,243.239,273.5723,226.4954,226.0097,0.1117,,0.6671,0.4981, ,, , ,24.6762,,24.6749,,0.8016,81.8399,,,,1.8545E+00,,1.0000E-12,,13.8961,13.8964,0.0260,325.851,95.644,94.721,,,,,,,,,,,,
CalCOFI,2101RL,066,,2101_066d,01-Feb-2021 10:28:42,01-Feb-2021 02:28:42,33.39096,-124.31972,076.7 100.0,076.7,100.0,10.000,10.072,,13.8976,,13.8978,,13.8977,33.0166,,33.0224,33.0151,,33.0171,33.0198,5.6440,,5.9069,5.9648,5.5709,,5.9149,5.9690,5.9669,245.989,257.7615,225.8478,242.804,273.9960,226.1179,225.9829,0.1234,,0.7630,0.4591, ,, , ,24.6761,,24.6749,,0.8010,81.8517,,,,2.0749E+00,,1.0000E-12,,13.8962,13.8964,0.0293,325.890,95.793,94.552,10,,33.0200,5.935,259.05,0.481,0.066,,,,,
CalCOFI,2101RL,066,,2101_066d,01-Feb-2021 10:28:43,01-Feb-2021 02:28:43,33.39097,-124.31971,076.7 100.0,076.7,100.0,11.000,11.079,,13.8978,,13.8981,,13.8980,33.0167,,33.0225,33.0151,,33.0171,33.0198,5.6566,,5.9201,5.9780,5.5727,,5.9168,5.9709,5.9745,246.539,258.3372,226.3151,242.883,274.6076,226.1864,226.2508,0.1061,,0.6212,0.5068, ,, , ,24.6761,,24.6749,,0.8015,81.8433,,,,2.2082E+00,,1.0000E-12,,13.8963,13.8965,0.0325,325.916,96.008,94.583,,,,,,,,,,,,
CalCOFI,2101RL,066,,2101_066d,01-Feb-2021 10:28:44,01-Feb-2021 02:28:44,33.39098,-124.31970,076.7 100.0,076.7,100.0,12.000,12.086,,13.8978,,13.8980,,13.8979,33.0166,,33.0224,33.0151,,33.0171,33.0198,5.6489,,5.9120,5.9700,5.5718,,5.9158,5.9700,5.9700,246.206,257.9886,226.0322,242.846,274.2373,226.1543,226.0933,0.1105,,0.6572,0.5005, ,, , ,24.6761,,24.6749,,0.8103,81.6617,,,,2.1565E+00,,1.0000E-12,,13.8961,13.8963,0.0358,325.946,95.878,94.569,,,,,,,,,,,,
CalCOFI,2101RL,066,,2101_066d,01-Feb-2021 10:28:46,01-Feb-2021 02:28:46,33.39098,-124.31969,076.7 100.0,076.7,100.0,13.000,13.093,,13.8978,,13.8981,,13.8980,33.0166,,33.0224,33.0151,,33.0171,33.0198,5.6529,,5.9162,5.9742,5.5717,,5.9157,5.9699,5.9721,246.378,258.1687,226.1783,242.841,274.4286,226.1500,226.1642,0.1048,,0.6105,0.5079, ,, , ,24.6762,,24.6750,,0.8010,81.8522,,,,2.0706E+00,,1.0000E-12,,13.8959,13.8962,0.0391,325.968,95.945,94.567,,,,,,,,,,,,
CalCOFI,2101RL,066,,2101_066d,01-Feb-2021 10:28:49,01-Feb-2021 02:28:49,33.39098,-124.31967,076.7 100.0,076.7,100.0,14.000,14.100,,13.8979,,13.8983,,13.8981,33.0167,,33.0225,33.0151,,33.0171,33.0198,5.6611,,5.9248,5.9828,5.5830,,5.9277,5.9820,5.9824,246.736,258.5434,226.4825,243.333,274.8267,226.5770,226.5298,0.1037,,0.6015,0.5086, ,, , ,24.6762,,24.6749,,0.8014,81.8443,,,,2.4694E+00,,1.0000E-12,,13.8960,13.8963,0.0424,325.990,96.085,94.759,,,,,,,,,,,,
CalCOFI,2101RL,066,,2101_066d,01-Feb-2021 10:28:53,01-Feb-2021 02:28:53,33.39098,-124.31967,076.7 100.0,076.7,100.0,15.000,15.108,,13.8979,,13.8980,,13.8980,33.0167,,33.0225,33.0152,,33.0172,33.0199,5.6611,,5.9248,5.9828,5.5728,,5.9169,5.9710,5.9769,246.736,258.5434,226.4825,242.889,274.8267,226.1917,226.3371,0.1077,,0.6343,0.5050, ,, , ,24.6763,,24.6751,,0.8007,81.8584,,,,2.5283E+00,,1.0000E-12,,13.8958,13.8959,0.0457,326.016,96.085,94.586,,,,,,,,,,,,
CalCOFI,2101RL,066,,2101_066d,01-Feb-2021 10:28:57,01-Feb-2021 02:28:57,33.39099,-124.31968,076.7 100.0,076.7,100.0,16.000,16.115,,13.8965,,13.8967,,13.8966,33.0167,,33.0225,33.0152,,33.0172,33.0199,5.6457,,5.9087,5.9666,5.5777,,5.9221,5.9763,5.9715,246.065,257.8410,225.9123,243.101,274.0805,226.3756,226.1440,0.1094,,0.6482,0.5025, ,, , ,24.6765,,24.6754,,0.8020,81.8328,,,,2.3607E+00,,1.0000E-12,,13.8942,13.8944,0.0497,326.017,95.820,94.666,,,,,,,,,,,,
CalCOFI,2101RL,066,,2101_066d,01-Feb-2021 10:29:01,01-Feb-2021 02:29:01,33.39102,-124.31966,076.7 100.0,076.7,100.0,17.000,17.122,,13.8968,,13.8968,,13.8968,33.0167,,33.0225,33.0152,,33.0172,33.0199,5.6519,,5.9152,5.9731,5.5689,,5.9127,5.9669,5.9700,246.336,258.1247,226.1426,242.718,274.3819,226.0432,226.0929,0.1054,,0.6155,0.5075, ,, , ,24.6766,,24.6754,,0.8018,81.8363,,,,2.5705E+00,,1.0000E-12,,13.8944,13.8944,0.0541,326.043,95.927,94.517,,,,,,,,,,,,
CalCOFI,2101RL,066,,2101_066d,01-Feb-2021 10:29:05,01-Feb-2021 02:29:05,33.39102,-124.31966,076.7 100.0,076.7,100.0,18.000,18.129,,13.8958,,13.8961,,13.8960,33.0168,,33.0226,33.0152,,33.0172,33.0199,5.6415,,5.9043,5.9622,5.5771,,5.9214,5.9757,5.9690,245.882,257.6495,225.7569,243.076,273.8770,226.3539,226.0554,0.1090,,0.6450,0.5031, ,, , ,24.6768,,24.6756,,0.7998,81.8784,,,,1.9485E+00,,1.0000E-12,,13.8933,13.8935,0.0574,326.046,95.748,94.655,,,,,,,,,,,,
CalCOFI,2101RL,066,,2101_066d,01-Feb-2021 10:29:07,01-Feb-2021 02:29:07,33.39102,-124.31966,076.7 100.0,076.7,100.0,19.000,19.136,,13.8932,,13.8937,,13.8935,33.0167,,33.0225,33.0153,,33.0173,33.0199,5.6295,,5.8917,5.9496,5.5912,,5.9364,5.9908,5.9702,245.357,257.0999,225.3108,243.690,273.2932,226.8868,226.0988,0.1054,,0.6155,0.5075, ,, , ,24.6774,,24.6761,,0.8007,81.8586,,,,2.4106E+00,,1.0000E-12,,13.8905,13.8910,0.0607,326.021,95.539,94.889,,,,,,,,,,,,
CalCOFI,2101RL,066,,2101_066d,01-Feb-2021 10:29:08,01-Feb-2021 02:29:08,33.39102,-124.31966,076.7 100.0,076.7,100.0,20.000,20.144,,13.8933,,13.8941,,13.8937,33.0169,,33.0227,33.0154,,33.0174,33.0201,5.6443,,5.9072,5.9651,5.5867,,5.9316,5.9859,5.9755,246.004,257.7772,225.8605,243.494,274.0127,226.7167,226.2886,0.1052,,0.6138,0.5076, ,, , ,24.6775,,24.6762,,0.8008,81.8580,,,,1.8745E+00,,1.0000E-12,,13.8904,13.8913,0.0640,326.039,95.791,94.814,20,,33.0189,5.955,259.90,0.472,0.206,,,,,
CalCOFI,2101RL,066,,2101_066d,01-Feb-2021 10:29:11,01-Feb-2021 02:29:11,33.39103,-124.31966,076.7 100.0,076.7,100.0,21.000,21.151,,13.8912,,13.8913,,13.8913,33.0169,,33.0227,33.0154,,33.0174,33.0201,5.6538,,5.9172,5.9751,5.5777,,5.9221,5.9763,5.9757,246.420,258.2127,226.2140,243.100,274.4753,226.3748,226.2944,0.1143,,0.6884,0.4919, ,, , ,24.6780,,24.6768,,0.8002,81.8691,,,,2.4328E+00,,1.0000E-12,,13.8883,13.8884,0.0675,326.018,95.949,94.655,,,,,,,,,,,,
CalCOFI,2101RL,066,,2101_066d,01-Feb-2021 10:29:14,01-Feb-2021 02:29:14,33.39104,-124.31965,076.7 100.0,076.7,100.0,22.000,22.158,,13.8853,,13.8872,,13.8863,33.0173,,33.0231,33.0155,,33.0175,33.0203,5.6495,,5.9127,5.9706,5.5872,,5.9322,5.9865,5.9786,246.231,258.0148,226.0534,243.513,274.2651,226.7332,226.3933,0.1081,,0.6376,0.5045, ,, , ,24.6795,,24.6778,,0.8101,81.6666,,,,2.6922E+00,,1.0000E-12,,13.8822,13.8841,0.0709,325.904,95.864,94.808,,,,,,,,,,,,
CalCOFI,2101RL,066,,2101_066d,01-Feb-2021 10:29:15,01-Feb-2021 02:29:15,33.39104,-124.31964,076.7 100.0,076.7,100.0,23.000,23.165,,13.8886,,13.8849,,13.8868,33.0170,,33.0228,33.0157,,33.0177,33.0203,5.6345,,5.8970,5.9548,5.5765,,5.9208,5.9750,5.9649,245.575,257.3281,225.4960,243.051,273.5357,226.3322,225.9141,0.1074,,0.6318,0.5054, ,, , ,24.6786,,24.6784,,0.8023,81.8260,,,,2.7990E+00,,1.0000E-12,,13.8853,13.8817,0.0742,326.014,95.615,94.624,,,,,,,,,,,,
CalCOFI,2101RL,066,,2101_066d,01-Feb-2021 10:29:16,01-Feb-2021 02:29:16,33.39104,-124.31962,076.7 100.0,076.7,100.0,24.000,24.173,,13.8803,,13.8768,,13.8786,33.0173,,33.0231,33.0160,,33.0180,33.0206,5.6313,,5.8936,5.9515,5.5739,,5.9180,5.9722,5.9619,245.437,257.1837,225.3787,242.933,273.3822,226.2298,225.8043,0.1059,,0.6196,0.5070, ,, , ,24.6806,,24.6804,,0.8015,81.8431,,,,2.6489E+00,,1.0000E-12,,13.8769,13.8734,0.0775,325.851,95.545,94.563,,,,,,,,,,,,
CalCOFI,2101RL,066,,2101_066d,01-Feb-2021 10:29:18,01-Feb-2021 02:29:18,33.39104,-124.31962,076.7 100.0,076.7,100.0,25.000,25.180,,13.8690,,13.8684,,13.8687,33.0179,,33.0237,33.0164,,33.0184,33.0211,5.6429,,5.9058,5.9637,5.5810,,5.9256,5.9798,5.9718,245.943,257.7133,225.8087,243.243,273.9449,226.4989,226.1538,0.1053,,0.6146,0.5076, ,, , ,24.6834,,24.6824,,0.8014,81.8448,,,,2.4562E+00,,1.0000E-12,,13.8655,13.8649,0.0807,325.611,95.721,94.668,,,,,,,,,,,,
CalCOFI,2101RL,066,,2101_066d,01-Feb-2021 10:29:20,01-Feb-2021 02:29:20,33.39107,-124.31961,076.7 100.0,076.7,100.0,26.000,26.187,,13.8552,,13.8550,,13.8551,33.0183,,33.0241,33.0170,,33.0190,33.0216,5.6510,,5.9142,5.9722,5.5875,,5.9325,5.9868,5.9795,246.295,258.0818,226.1078,243.528,274.3363,226.7462,226.4270,0.1062,,0.6220,0.5067, ,, , ,24.6866,,24.6856,,0.7983,81.9075,,,,2.6716E+00,,1.0000E-12,,13.8516,13.8513,0.0840,325.340,95.832,94.754,,,,,,,,,,,,
CalCOFI,2101RL,066,,2101_066d,01-Feb-2021 10:29:22,01-Feb-2021 02:29:22,33.39108,-124.31960,076.7 100.0,076.7,100.0,27.000,27.194,,13.8529,,13.8526,,13.8528,33.0184,,33.0242,33.0171,,33.0191,33.0217,5.6547,,5.9181,5.9761,5.5713,,5.9153,5.9694,5.9728,246.453,258.2472,226.2420,242.820,274.5120,226.1318,226.1869,0.1089,,0.6441,0.5033, ,, , ,24.6872,,24.6862,,0.7981,81.9122,,,,2.6556E+00,,1.0000E-12,,13.8490,13.8487,0.0873,325.312,95.889,94.474,,,,,,,,,,,,
CalCOFI,2101RL,066,,2101_066d,01-Feb-2021 10:29:23,01-Feb-2021 02:29:23,33.39108,-124.31959,076.7 100.0,076.7,100.0,28.000,28.202,,13.8508,,13.8501,,13.8505,33.0189,,33.0247,33.0176,,33.0196,33.0222,5.6497,,5.9129,5.9708,5.5720,,5.9160,5.9702,5.9705,246.237,258.0211,226.0585,242.848,274.2718,226.1561,226.1073,0.1073,,0.6310,0.5055, ,, , ,24.6880,,24.6872,,0.7986,81.9015,,,,2.8723E+00,,1.0000E-12,,13.8469,13.8461,0.0906,325.262,95.801,94.480,,,,,,,,,,,,
CalCOFI,2101RL,066,,2101_066d,01-Feb-2021 10:29:26,01-Feb-2021 02:29:26,33.39108,-124.31957,076.7 100.0,076.7,100.0,29.000,29.209,,13.8553,,13.8567,,13.8560,33.0186,,33.0244,33.0173,,33.0193,33.0219,5.6519,,5.9152,5.9731,5.5600,,5.9033,5.9573,5.9652,246.331,258.1195,226.1384,242.328,274.3763,225.7048,225.9216,0.1045,,0.6081,0.5081, ,, , ,24.6869,,24.6856,,0.7984,81.9067,,,,3.3835E+00,,1.0000E-12,,13.8512,13.8526,0.0938,325.393,95.846,94.290,,,,,,,,,,,,
CalCOFI,2101RL,066,,2101_066d,01-Feb-2021 10:29:28,01-Feb-2021 02:29:28,33.39108,-124.31956,076.7 100.0,076.7,100.0,30.000,30.216,,13.8505,,13.8522,,13.8514,33.0183,,33.0241,33.0174,,33.0194,33.0218,5.6522,,5.9155,5.9734,5.5704,,5.9143,5.9685,5.9710,246.346,258.1352,226.1511,242.779,274.3930,226.0962,226.1237,0.1042,,0.6056,0.5083, ,, , ,24.6877,,24.6866,,0.7980,81.9138,,,,3.3763E+00,,1.0000E-12,,13.8462,13.8479,0.0971,325.345,95.842,94.457,,,,,,,,,,,,
CalCOFI,2101RL,066,,2101_066d,01-Feb-2021 10:29:30,01-Feb-2021 02:29:30,33.39108,-124.31956,076.7 100.0,076.7,100.0,31.000,31.223,,13.8379,,13.8392,,13.8386,33.0191,,33.0249,33.0178,,33.0198,33.0224,5.6655,,5.9294,5.9874,5.5831,,5.9278,5.9821,5.9848,246.924,258.7402,226.6422,243.333,275.0358,226.5770,226.6096,0.1095,,0.6491,0.5023, ,, , ,24.6909,,24.6897,,0.7978,81.9178,,,,2.1917E+00,,1.0000E-12,,13.8336,13.8348,0.1004,325.068,96.044,94.648,,,,,,,,,,,,
CalCOFI,2101RL,066,,2101_066d,01-Feb-2021 10:29:32,01-Feb-2021 02:29:32,33.39110,-124.31954,076.7 100.0,076.7,100.0,32.000,32.231,,13.8292,,13.8302,,13.8297,33.0196,,33.0254,33.0182,,33.0202,33.0228,5.6504,,5.9136,5.9715,5.5752,,5.9194,5.9736,5.9726,246.263,258.0483,226.0806,242.989,274.3007,226.2784,226.1795,0.1080,,0.6368,0.5046, ,, , ,24.6931,,24.6918,,0.7949,81.9769,,,,2.9750E+00,,1.0000E-12,,13.8247,13.8257,0.1037,324.885,95.770,94.497,,,,,,,,,,,,
CalCOFI,2101RL,066,,2101_066d,01-Feb-2021 10:29:35,01-Feb-2021 02:29:35,33.39112,-124.31952,076.7 100.0,076.7,100.0,33.000,33.238,,13.8264,,13.8263,,13.8264,33.0197,,33.0255,33.0181,,33.0201,33.0228,5.6346,,5.8971,5.9549,5.5715,,5.9155,5.9697,5.9623,245.578,257.3313,225.4986,242.825,273.5390,226.1361,225.8174,0.1069,,0.6277,0.5060, ,, , ,24.6938,,24.6926,,0.7947,81.9811,,,,2.6113E+00,,1.0000E-12,,13.8218,13.8216,0.1070,324.847,95.498,94.426,,,,,,,,,,,,
CalCOFI,2101RL,066,,2101_066d,01-Feb-2021 10:29:36,01-Feb-2021 02:29:36,33.39112,-124.31951,076.7 100.0,076.7,100.0,34.000,34.245,,13.8240,,13.8237,,13.8239,33.0199,,33.0257,33.0184,,33.0204,33.0231,5.6411,,5.9039,5.9618,5.5764,,5.9207,5.9749,5.9684,245.859,257.6254,225.7373,243.039,273.8515,226.3218,226.0296,0.1074,,0.6318,0.5054, ,, , ,24.6944,,24.6934,,0.7983,81.9073,,,,2.5715E+00,,1.0000E-12,,13.8192,13.8189,0.1102,324.813,95.603,94.505,,,,,,,,,,,,
CalCOFI,2101RL,066,,2101_066d,01-Feb-2021 10:29:38,01-Feb-2021 02:29:38,33.39112,-124.31948,076.7 100.0,076.7,100.0,35.000,35.253,,13.8237,,13.8237,,13.8237,33.0198,,33.0256,33.0182,,33.0202,33.0229,5.6508,,5.9140,5.9720,5.5747,,5.9189,5.9731,5.9726,246.282,258.0682,226.0967,242.967,274.3218,226.2593,226.1780,0.1080,,0.6368,0.5046, ,, , ,24.6945,,24.6933,,0.7965,81.9458,,,,2.2132E+00,,1.0000E-12,,13.8188,13.8187,0.1135,324.835,95.767,94.476,,,,,,,,,,,,
CalCOFI,2101RL,066,,2101_066d,01-Feb-2021 10:29:41,01-Feb-2021 02:29:41,33.39113,-124.31947,076.7 100.0,076.7,100.0,36.000,36.260,,13.8224,,13.8229,,13.8227,33.0197,,33.0255,33.0182,,33.0202,33.0229,5.6372,,5.8998,5.9577,5.5584,,5.9016,5.9556,5.9567,245.689,257.4474,225.5929,242.257,273.6624,225.6432,225.6181,0.1065,,0.6245,0.5064, ,, , ,24.6947,,24.6935,,0.7934,82.0082,,,,2.7099E+00,,1.0000E-12,,13.8174,13.8178,0.1168,324.841,95.533,94.199,,,,,,,,,,,,
CalCOFI,2101RL,066,,2101_066d,01-Feb-2021 10:29:42,01-Feb-2021 02:29:42,33.39114,-124.31946,076.7 100.0,076.7,100.0,37.000,37.267,,13.8151,,13.8136,,13.8144,33.0189,,33.0247,33.0178,,33.0198,33.0223,5.6376,,5.9002,5.9581,5.5671,,5.9108,5.9649,5.9615,245.706,257.4652,225.6073,242.635,273.6813,225.9712,225.7893,0.1115,,0.6654,0.4985, ,, , ,24.6956,,24.6950,,0.7925,82.0272,,,,3.5035E+00,,1.0000E-12,,13.8099,13.8084,0.1200,324.788,95.526,94.328,,,,,,,,,,,,
CalCOFI,2101RL,066,,2101_066d,01-Feb-2021 10:29:43,01-Feb-2021 02:29:43,33.39114,-124.31944,076.7 100.0,076.7,100.0,38.000,38.275,,13.7983,,13.7977,,13.7980,33.0188,,33.0246,33.0181,,33.0201,33.0224,5.6317,,5.8940,5.9519,5.5691,,5.9129,5.9671,5.9595,245.451,257.1983,225.3906,242.720,273.3978,226.0450,225.7178,0.1099,,0.6523,0.5016, ,, , ,24.6990,,24.6986,,0.7907,82.0648,,,,2.2436E+00,,1.0000E-12,,13.7930,13.7924,0.1233,324.487,95.394,94.331,,,,,,,,,,,,
CalCOFI,2101RL,066,,2101_066d,01-Feb-2021 10:29:48,01-Feb-2021 02:29:48,33.39114,-124.31940,076.7 100.0,076.7,100.0,39.000,39.282,,13.7877,,13.7884,,13.7881,33.0191,,33.0249,33.0175,,33.0195,33.0222,5.6408,,5.9036,5.9614,5.5562,,5.8992,5.9533,5.9574,245.845,257.6107,225.7254,242.157,273.8359,225.5564,225.6409,0.1080,,0.6368,0.5046, ,, , ,24.7014,,24.7001,,0.7896,82.0854,,,,3.4029E+00,,1.0000E-12,,13.7822,13.7829,0.1269,324.286,95.527,94.094,,,,,,,,,,,,
CalCOFI,2101RL,066,,2101_066d,01-Feb-2021 10:29:49,01-Feb-2021 02:29:49,33.39114,-124.31940,076.7 100.0,076.7,100.0,40.000,40.289,,13.7982,,13.8002,,13.7992,33.0236,,33.0294,33.0225,,33.0245,33.0270,5.6440,,5.9069,5.9648,5.5680,,5.9118,5.9659,5.9654,245.983,257.7552,225.8427,242.673,273.9894,226.0042,225.9235,0.1133,,0.6802,0.4944, ,, , ,24.7028,,24.7016,,0.7919,82.0405,,,,3.7030E+00,,1.0000E-12,,13.7925,13.7945,0.1303,324.180,95.604,94.320,,,,,,,,,,,,
CalCOFI,2101RL,066,,2101_066d,01-Feb-2021 10:29:50,01-Feb-2021 02:29:50,33.39115,-124.31939,076.7 100.0,076.7,100.0,41.000,41.297,,13.8022,,13.8028,,13.8025,33.0250,,33.0308,33.0236,,33.0256,33.0282,5.6201,,5.8819,5.9397,5.5736,,5.9177,5.9719,5.9558,244.942,256.6655,224.9581,242.919,272.8317,226.2177,225.5879,0.1199,,0.7343,0.4737, ,, , ,24.7031,,24.7019,,0.7937,82.0021,,,,3.5343E+00,,1.0000E-12,,13.7964,13.7970,0.1335,324.181,95.208,94.422,,,,,,,,,,,,
CalCOFI,2101RL,066,,2101_066d,01-Feb-2021 10:29:51,01-Feb-2021 02:29:51,33.39116,-124.31938,076.7 100.0,076.7,100.0,42.000,42.304,,13.8025,,13.8028,,13.8027,33.0252,,33.0310,33.0236,,33.0256,33.0283,5.6465,,5.9095,5.9674,5.5602,,5.9035,5.9575,5.9625,246.096,257.8735,225.9387,242.334,274.1150,225.7100,225.8244,0.1119,,0.6687,0.4977, ,, , ,24.7032,,24.7019,,0.7943,81.9904,,,,3.5919E+00,,1.0000E-12,,13.7966,13.7969,0.1368,324.200,95.657,94.194,42,,33.0221,, ,,,,,,,
CalCOFI,2101RL,066,,2101_066d,01-Feb-2021 10:29:55,01-Feb-2021 02:29:55,33.39118,-124.31936,076.7 100.0,076.7,100.0,43.000,43.311,,13.8025,,13.8028,,13.8027,33.0256,,33.0314,33.0240,,33.0260,33.0287,5.6340,,5.8964,5.9543,5.5476,,5.8901,5.9440,5.9492,245.550,257.3019,225.4747,241.785,273.5079,225.2336,225.3542,0.1113,,0.6638,0.4989, ,, , ,24.7035,,24.7022,,0.7927,82.0221,,,,3.1145E+00,,1.0000E-12,,13.7964,13.7968,0.1401,324.198,95.445,93.981,,,,,,,,,,,,
CalCOFI,2101RL,066,,2101_066d,01-Feb-2021 10:29:57,01-Feb-2021 02:29:57,33.39118,-124.31935,076.7 100.0,076.7,100.0,44.000,44.319,,13.8023,,13.8025,,13.8024,33.0259,,33.0317,33.0245,,33.0265,33.0291,5.6384,,5.9010,5.9589,5.5540,,5.8969,5.9509,5.9549,245.741,257.5019,225.6370,242.061,273.7202,225.4731,225.5551,0.1150,,0.6941,0.4900, ,, , ,24.7038,,24.7027,,0.7924,82.0289,,,,2.4247E+00,,1.0000E-12,,13.7961,13.7963,0.1433,324.198,95.519,94.088,,,,,,,,,,,,
CalCOFI,2101RL,066,,2101_066d,01-Feb-2021 10:29:59,01-Feb-2021 02:29:59,33.39118,-124.31934,076.7 100.0,076.7,100.0,45.000,45.326,,13.8015,,13.8016,,13.8016,33.0272,,33.0330,33.0260,,33.0280,33.0305,5.6272,,5.8893,5.9472,5.5581,,5.9013,5.9553,5.9513,245.254,256.9921,225.2233,242.240,273.1787,225.6284,225.4259,0.1110,,0.6613,0.4995, ,, , ,24.7050,,24.7041,,0.7935,82.0070,,,,3.4920E+00,,1.0000E-12,,13.7952,13.7952,0.1466,324.110,95.329,94.157,,,,,,,,,,,,
CalCOFI,2101RL,066,,2101_066d,01-Feb-2021 10:30:01,01-Feb-2021 02:30:01,33.39120,-124.31932,076.7 100.0,076.7,100.0,46.000,46.333,,13.7998,,13.8001,,13.8000,33.0284,,33.0342,33.0268,,33.0288,33.0315,5.6282,,5.8904,5.9482,5.5557,,5.8987,5.9527,5.9505,245.293,257.0329,225.2564,242.136,273.2221,225.5382,225.3973,0.1064,,0.6237,0.5065, ,, , ,24.7063,,24.7050,,0.7914,82.0490,,,,3.6309E+00,,1.0000E-12,,13.7933,13.7937,0.1498,324.015,95.342,94.114,,,,,,,,,,,,
CalCOFI,2101RL,066,,2101_066d,01-Feb-2021 10:30:03,01-Feb-2021 02:30:03,33.39120,-124.31932,076.7 100.0,076.7,100.0,47.000,47.341,,13.7979,,13.7981,,13.7980,33.0284,,33.0342,33.0269,,33.0289,33.0316,5.6452,,5.9082,5.9661,5.5494,,5.8920,5.9460,5.9561,246.037,257.8117,225.8885,241.861,274.0494,225.2995,225.5940,0.1119,,0.6687,0.4977, ,, , ,24.7068,,24.7056,,0.7919,82.0389,,,,3.2337E+00,,1.0000E-12,,13.7913,13.7915,0.1531,324.001,95.627,94.004,,,,,,,,,,,,
CalCOFI,2101RL,066,,2101_066d,01-Feb-2021 10:30:04,01-Feb-2021 02:30:04,33.39120,-124.31930,076.7 100.0,076.7,100.0,48.000,48.348,,13.7966,,13.7968,,13.7967,33.0284,,33.0342,33.0269,,33.0289,33.0316,5.6273,,5.8894,5.9473,5.5433,,5.8855,5.9394,5.9434,245.257,256.9952,225.2258,241.594,273.1820,225.0678,225.1468,0.1068,,0.6269,0.5061, ,, , ,24.7070,,24.7058,,0.7902,82.0748,,,,2.5215E+00,,1.0000E-12,,13.7899,13.7901,0.1564,324.004,95.322,93.897,,,,,,,,,,,,
CalCOFI,2101RL,066,,2101_066d,01-Feb-2021 10:30:07,01-Feb-2021 02:30:07,33.39121,-124.31930,076.7 100.0,076.7,100.0,49.000,49.355,,13.7934,,13.7937,,13.7936,33.0277,,33.0335,33.0263,,33.0283,33.0309,5.6198,,5.8816,5.9394,5.5378,,5.8797,5.9335,5.9365,244.929,256.6519,224.9471,241.355,272.8173,224.8604,224.9038,0.1039,,0.6032,0.5085, ,, , ,24.7072,,24.7061,,0.7885,82.1079,,,,3.5773E+00,,1.0000E-12,,13.7865,13.7868,0.1596,324.012,95.188,93.798,,,,,,,,,,,,
CalCOFI,2101RL,066,,2101_066d,01-Feb-2021 10:30:08,01-Feb-2021 02:30:08,33.39122,-124.31930,076.7 100.0,076.7,100.0,50.000,50.363,,13.7896,,13.7892,,13.7894,33.0272,,33.0330,33.0256,,33.0276,33.0303,5.6188,,5.8805,5.9383,5.5453,,5.8877,5.9416,5.9400,244.887,256.6079,224.9114,241.681,272.7706,225.1433,225.0274,0.1038,,0.6023,0.5085, ,, , ,24.7076,,24.7065,,0.7867,82.1464,,,,3.5000E+00,,1.0000E-12,,13.7825,13.7822,0.1629,324.003,95.164,93.916,,,,,,,,,,,,
CalCOFI,2101RL,066,,2101_066d,01-Feb-2021 10:30:11,01-Feb-2021 02:30:11,33.39122,-124.31930,076.7 100.0,076.7,100.0,51.000,51.370,,13.7855,,13.7859,,13.7857,33.0268,,33.0326,33.0253,,33.0273,33.0300,5.6392,,5.9019,5.9598,5.5386,,5.8805,5.9344,5.9471,245.773,257.5354,225.6642,241.392,273.7558,224.8925,225.2784,0.1005,,0.5753,0.5091, ,, , ,24.7082,,24.7069,,0.7861,82.1583,,,,2.9929E+00,,1.0000E-12,,13.7783,13.7787,0.1662,323.976,95.500,93.797,51,,33.0270,5.934,258.99,0.572,0.122,,,,,